Tracking 35274 objects as of 11-Sep-2026
HD Live streaming from Space Station
objects crossing your sky now

SOYUZ-T 10


SOYUZ-T 10 is no longer on orbit


NORAD ID: 14701
Int'l Code: 1984-014A
Launch date: February 8, 1984
Source: Commonwealth of Independent States (former USSR) (CIS)
Launch site: TYURATAM MISSILE AND SPACE COMPLEX (TTMTR)
Decay date: 1984-04-11
Your satellite tracking list
Your tracking list is empty




NASA's NSSDC Master Catalog

Two Line Element Set (TLE):
1 14701U 84014  A 84074.25574460  .00072396 +00000-0 +22924-3 0  9995
2 14701 051.6316 146.0069 0003339 199.2448 160.9477 15.90716762005551
Source of the keplerian elements: AFSPC